Hatteras, NC

7:37 PM EDT on April 27, 2017 (GMT -0400)
Mitchell

Weather History for KHSE - February, 2014

Change the Weather History Date:

Monday, February 3, 2014

  Actual Average Record
Temperature  
Mean Temperature 53 °F 46 °F  
Max Temperature 67 °F 53 °F 71 °F (1989)
Min Temperature 39 °F 39 °F 15 °F (1917)
Degree Days  
Heating Degree Days 12 19  
Month to date heating degree days 39 57  
Since 1 July heating degree days 1384 1470  
Cooling Degree Days 0 0  
Month to date cooling degree days 0 0  
Year to date cooling degree days 0 0  
Growing Degree Days 2 (Base 50)    
Moisture  
Dew Point 52 °F    
Average Humidity 93    
Maximum Humidity 100    
Minimum Humidity 86    
Precipitation  
Precipitation 0.00 in 0.15 in 2.87 in (1970)
Month to date precipitation 0.03 0.46  
Year to date precipitation 5.37 5.70  
Snow  
Snow 0.00 in - - ()
Month to date snowfall 0.0  
Since 1 July snowfall T  
Snow Depth 0.00 in    
Sea Level Pressure  
Sea Level Pressure 30.04 in    
Wind  
Wind Speed 11 mph (WSW)    
Max Wind Speed 23 mph    
Max Gust Speed 31 mph    
Visibility 6 miles    
Events      
T = Trace of Precipitation, MM = Missing Value Source: NWS Daily Summary

Daily Weather History Graph

Daily Weather History Graph

Search for Another Location

Airport or City:

Trip Planner

Search our weather history database for the weather conditions in past years. The results will help you decide how hot, cold, wet, or windy it might be!

Date:

Astronomy

Feb. 03, 2014 Rise Set
Actual Time 7:00 AM EST 5:32 PM EST
Civil Twilight 6:33 AM EST 5:59 PM EST
Nautical Twilight 6:03 AM EST 6:29 PM EST
Astronomical Twilight 5:33 AM EST 6:59 PM EST
Moon 9:12 AM EST (2/3) 10:08 PM EST (2/3)
Length of Visible Light 11h 25m
Length of Day
10h 32m
Waxing Crescent, 19% of the Moon is Illuminated
Feb 3
Waxing Crescent
Feb 6
First Quarter
Feb 14
Full
Feb 22
Last Quarter
Mar 1
New

Hourly Weather History & Observations

Time (EST) Temp. Windchill Dew Point Humidity Pressure Visibility Wind Dir Wind Speed Gust Speed Precip Events Conditions
12:51 AM 54.0 °F - 53.1 °F 97% 30.06 in 10.0 mi WSW 9.2 mph - N/A   Clear
1:51 AM 55.0 °F - 53.1 °F 93% 30.05 in 9.0 mi WSW 8.1 mph - N/A   Clear
2:51 AM 54.0 °F - 53.1 °F 97% 30.04 in 7.0 mi WSW 5.8 mph - N/A   Clear
3:51 AM 53.1 °F - 52.0 °F 96% 30.03 in 6.0 mi SW 4.6 mph - N/A   Clear
4:51 AM 51.1 °F - 50.0 °F 96% 30.04 in 4.0 mi SW 3.5 mph - N/A   Clear
5:51 AM 48.9 °F - 48.9 °F 100% 30.03 in 6.0 mi Calm Calm - N/A   Clear
6:51 AM 46.0 °F - 46.0 °F 100% 30.03 in 3.0 mi Calm Calm - N/A   Clear
7:11 AM 46.9 °F - 46.9 °F 100% 30.03 in 1.8 mi SSW 3.5 mph - N/A   Clear
7:20 AM 48.0 °F - 48.0 °F 100% 30.02 in 1.2 mi SSW 4.6 mph - N/A   Clear
7:30 AM 46.9 °F - 46.9 °F 100% 30.02 in 1.5 mi South 3.5 mph - N/A   Partly Cloudy
7:47 AM 53.6 °F - 53.6 °F 100% 30.02 in 3.0 mi SSW 5.8 mph - N/A   Scattered Clouds
7:51 AM 55.9 °F - 55.0 °F 97% 30.02 in 4.0 mi SSW 6.9 mph - N/A   Scattered Clouds
8:51 AM 60.1 °F - 57.9 °F 93% 30.02 in 10.0 mi SSW 8.1 mph - N/A   Partly Cloudy
9:51 AM 64.0 °F - 62.1 °F 93% 30.01 in 9.0 mi SW 10.4 mph 23.0 mph N/A   Mostly Cloudy
10:51 AM 64.9 °F - 62.1 °F 90% 29.99 in 7.0 mi SW 13.8 mph 21.9 mph N/A   Scattered Clouds
11:51 AM 66.9 °F - 62.1 °F 84% 29.96 in 7.0 mi SW 16.1 mph 24.2 mph N/A   Clear
12:35 PM 66.0 °F - 62.1 °F 87% 29.96 in 6.0 mi SW 13.8 mph 21.9 mph N/A   Mostly Cloudy
12:43 PM 66.0 °F - 62.1 °F 87% 29.95 in 6.0 mi WSW 13.8 mph 21.9 mph N/A   Scattered Clouds
12:51 PM 66.0 °F - 62.1 °F 87% 29.95 in 6.0 mi SW 15.0 mph 21.9 mph N/A   Partly Cloudy
1:51 PM 64.9 °F - 62.1 °F 90% 29.94 in 6.0 mi WSW 17.3 mph 26.5 mph N/A   Overcast
2:08 PM 64.9 °F - 62.1 °F 90% 29.93 in 6.0 mi WSW 17.3 mph 26.5 mph N/A   Overcast
2:51 PM 63.0 °F - 62.1 °F 97% 29.95 in 2.0 mi WSW 19.6 mph 31.1 mph N/A   Overcast
2:59 PM 62.1 °F - 62.1 °F 100% 29.95 in 1.5 mi WSW 19.6 mph 27.6 mph N/A   Overcast
3:06 PM 62.1 °F - 62.1 °F 100% 29.95 in 1.0 mi WSW 18.4 mph 28.8 mph N/A   Overcast
3:25 PM 62.1 °F - 62.1 °F 100% 29.95 in 2.0 mi WSW 20.7 mph 26.5 mph N/A   Overcast
3:36 PM 62.1 °F - 62.1 °F 100% 29.95 in 3.0 mi WSW 19.6 mph 28.8 mph N/A   Overcast
3:51 PM 62.1 °F - 62.1 °F 100% 29.96 in 4.0 mi WSW 18.4 mph 25.3 mph N/A   Overcast
4:44 PM 61.0 °F - 61.0 °F 100% 29.99 in 5.0 mi WSW 16.1 mph 24.2 mph N/A   Overcast
4:51 PM 61.0 °F - 61.0 °F 100% 29.99 in 5.0 mi WSW 13.8 mph 24.2 mph N/A   Overcast
5:41 PM 44.1 °F 38.1 °F 43.0 °F 96% 30.07 in 6.0 mi NNE 11.5 mph 25.3 mph N/A   Overcast
5:51 PM 44.1 °F 37.7 °F 42.1 °F 93% 30.07 in 7.0 mi NE 12.7 mph 24.2 mph N/A   Overcast
6:51 PM 42.1 °F 35.2 °F 41.0 °F 96% 30.12 in 10.0 mi NNE 12.7 mph 24.2 mph N/A   Overcast
7:44 PM 41.0 °F 32.5 °F 39.0 °F 93% 30.14 in 10.0 mi NNE 17.3 mph 29.9 mph N/A   Overcast
7:51 PM 41.0 °F 33.5 °F 37.9 °F 89% 30.15 in 10.0 mi NNE 13.8 mph 29.9 mph N/A   Overcast
8:31 PM 39.9 °F 33.4 °F 37.9 °F 93% 30.17 in 10.0 mi North 10.4 mph 26.5 mph N/A   Overcast
8:51 PM 39.9 °F 32.1 °F 37.0 °F 89% 30.17 in 10.0 mi North 13.8 mph 26.5 mph N/A   Overcast
9:41 PM 39.9 °F 32.9 °F 37.9 °F 93% 30.20 in 10.0 mi North 11.5 mph 23.0 mph N/A   Overcast
9:51 PM 39.9 °F 33.4 °F 37.9 °F 93% 30.20 in 10.0 mi North 10.4 mph 21.9 mph N/A   Overcast
10:51 PM 39.9 °F 33.9 °F 39.0 °F 97% 30.22 in 10.0 mi North 9.2 mph 21.9 mph N/A   Overcast
11:51 PM 41.0 °F 33.1 °F 39.9 °F 96% 30.21 in 10.0 mi NNE 15.0 mph 21.9 mph N/A   Overcast